Regional Weather Roundup
Issued by NWS

Home | Current Version | Previous Version | Graphics & Text | Print | Product List | Glossary On
Versions: 1 2 3 4 5 6 7 8 9 10 11 12 13 14 15 16 17 18 19 20 21 22 23 24 25 26 27 28 29 30 31 32 33 34 35 36 37 38 39 40 41 42 43 44 45 46 47 48 49 50
000
ASUS43 KLOT 051501
RWRIL

ILLINOIS REGIONAL WEATHER ROUNDUP
NATIONAL WEATHER SERVICE CHICAGO/ROMEOVILLE IL
1000 AM CDT SAT SEP 05 2015

NOTE: "FAIR" INDICATES FEW OR NO CLOUDS BELOW 12,000 FEET WITH NO
SIGNIFICANT WEATHER AND/OR OBSTRUCTIONS TO VISIBILITY.

* THESE STATIONS ARE NOT UNDER NWS QUALITY CONTROL. THEY ALSO MAY NOT
  REPORT WEATHER SUCH AS PRECIPITATION OR FOG.

ILZ001-002-007-009-015-016-024-051600-
NORTHWEST ILLINOIS

CITY           SKY/WX    TMP DP  RH WIND       PRES   REMARKS
MOLINE         MOSUNNY   80  71  74 SW5       30.06F HX  84
STERLING*      CLOUDY   N/A N/A N/A CALM      30.06F
$$

ILZ003-004-008-010-011-017-018-051600-
NORTH CENTRAL ILLINOIS

CITY           SKY/WX    TMP DP  RH WIND       PRES   REMARKS
ROCKFORD       LGT RAIN  76  70  82 S6        30.10S
FREEPORT*      CLOUDY    71  71  97 CALM      30.11S FOG
$$

ILZ005-006-012>014-019>023-051600-
NORTHEAST ILLINOIS

CITY           SKY/WX    TMP DP  RH WIND       PRES   REMARKS
CHICAGO-OHARE  PTSUNNY   75  67  76 SW6       30.11R
CHICAGO-MIDWAY PTSUNNY   73  67  81 SE13      30.11R
AURORA         MOSUNNY   78  69  73 S7        30.12R HX  80
WAUKEGAN       PTSUNNY   77  70  79 SW7       30.09S
DUPAGE AIRPORT MOSUNNY   79  68  69 SW9       30.11R HX  81
WHEELING       NOT AVBL
NORTHERLY ISL    N/A     70  65  84 S8          N/A
$$

LMZ740>746-051600-
SOUTHERN LAKE MICHIGAN

STATION/POSITION SKY/WX   TEMP    WIND        PRES    VSBY  WAVE
                          AIR SEA DIR/SP/G                  HT/PER
                          (F)     (DEG/KT/KT) (MB)    (MI)  (FT/S)
SOUTHERN BUOY              71 71  190/ 10/ 12 1018.4R         0
WILMETTE HARBOR            72 71  290/  2/  4   N/A           1/ 2
HARRISON CRIB              73     200/  7/ 10   N/A
BURNHAM HARBOR             71     190/  6/ 15   N/A
CALUMET HARBOR             70      50/ 11/ 13   N/A
BURNS HARBOR               67     300/ 28     1020.3R
MICHIGAN CITY              74     200/ 11/ 12   N/A
MICHIGAN CITY 6N           74 73  240/ 10/ 12   N/A           1/ 2
ST. JOSEPH                 74 73  240/ 10/ 12   N/A           1/ 3
$$

ILZ025>027-034>036-040-047-049-050-058-095>099-051600-
WEST-CENTRAL ILLINOIS

CITY           SKY/WX    TMP DP  RH WIND       PRES   REMARKS
QUINCY         SUNNY     84  70  62 S8        30.09S HX  88
$$

ILZ028>032-037-038-041>044-048-051>054-059>061-051600-
CENTRAL ILLINOIS

CITY           SKY/WX    TMP DP  RH WIND       PRES   REMARKS
DECATUR        MOSUNNY   84  70  62 VRB5      30.13S HX  88
PEORIA         PTSUNNY   79  68  69 S6        30.10F HX  81
SPRINGFIELD    SUNNY     84  70  62 S3        30.12S HX  88
TAYLORVILLE    NOT AVBL
$$

ILZ033-039-045-046-055>057-062-063-051600-
EAST-CENTRAL ILLINOIS

CITY           SKY/WX    TMP DP  RH WIND       PRES   REMARKS
CHAMPAIGN      MOSUNNY   81  73  76 E6        30.15R HX  86
MATTOON        MOSUNNY   81  68  64 S6        30.13S HX  84
$$

ILZ079-100>102-051600-
SOUTHWEST ILLINOIS

CITY           SKY/WX    TMP DP  RH WIND       PRES   REMARKS
ALTON          SUNNY     82  72  69 CALM      30.12R HX  87
BELLEVILLE     SUNNY     83  74  73 E3        30.11R HX  89
CAHOKIA*       SUNNY     84  71  65 VRB3      30.10S HX  89
SPARTA*        SUNNY     81  72  73 CALM      30.13R HX  86
$$

ILZ064>066-069>071-074>076-080>082-084>086-088>090-092>094-051600-
SOUTH-CENTRAL ILLINOIS

CITY           SKY/WX    TMP DP  RH WIND       PRES   REMARKS
CARBONDALE     SUNNY     82  71  69 CALM      30.11S HX  86
MARION         PTSUNNY   86  72  62 SE6       30.13R HX  92
MT. VERNON     SUNNY     82  70  65 CALM      30.14R HX  86
CENTRALIA*     SUNNY     85  73  67 CALM      30.12R HX  91
SALEM*         SUNNY     84  70  62 E3        30.13S HX  89
$$

ILZ067-068-072-073-078-083-087-091-051600-
SOUTHEAST ILLINOIS

CITY           SKY/WX    TMP DP  RH WIND       PRES   REMARKS
LAWRENCEVILLE  SUNNY     84  68  58 S5        30.14R HX  87
FLORA*         MOSUNNY   83  68  59 S3        30.13S HX  86
ROBINSON*      SUNNY     81  69  66 S6        30.14S HX  84
$$

ABBREVIATIONS USED IN REMARKS
   TC - TEMPERATURE IN CELSIUS
  WCI - WIND CHILL INDEX
   HX - HEAT INDEX
  VSB - VISIBILITY
$$




USA.gov is the U.S. government's official web portal to all federal, state and local government web resources and services.